SCP
0 0 0 0 0 0 0 0 0 0 0 0 0 0 0 0 0 0 0 0 0 0 0 0 0 0 0 0 0 0 0 0 0 0 0 0 0 0 0 0 0 0 0
0 0 0 0 0 0 0 0 0 0 0 0 0 0 0 0 0 0 0 0 0 0 0 0 0 0 0 0 0 0 0 0 0 0 0 0 0 0 0 0 0 0 0
0 0 0 0 0 0 0 0 0 0 0 0 0 0 0 0 0 0 0 0 0 0 0 0 0 0 0 0 0 0 0 0 0 0 0 0 0 0 0 0 0 0 0
0 0 0 0 0 0 0 0 0 0 0 0 0 0 0 0 0 0 0 0 0 0 0 0 0 0 0 0 0 0 0 0 0 0 0 0 0 0 0 0 0 0 0
0 0 0 0 0 0 0 0 0 0 0 0 0 0 0 0 0 0 0 0 0 0 0 0 0 0 0 0 0 0 0 0 0 0 0 0 0 0 0 0 0 0 0
0 0 0 0 0 0 0 0 0 0 0 0 0 0 0 0 0 0 0 0 0 0 0 0 0 0 0 0 0 0 0 0 0 0 0 0 0 0 0 0 0 0 0
0 0 0 0 0 0 0 0 0 0 0 0 0 0 0 0 0 0 0 0 0 0 0 0 0 0 0 0 0 0 0 0 0 0 0 0 0 0 0 0 0 0 0
0 0 0 0 0 0 0 0 0 0 0 0 0 0 0 0 0 0 0 0 0 0 0 0 0 0 0 0 0 0 0 0 0 0 0 0 0 0 0 0 0 0 0
0 0 0 0 0 0 0 0 0 0 0 0 0 0 0 0 0 0 0 0 0 0 0 0 0 0 0 0 0 0 0 0 0 0 0 0 0 0 0 0 0 0 0
0 0 0 0 0 0 0 0 0 0 0 0 0 0 -0 0 0 0 0 0 0 0 0 0 0 0 0 0 0 0 0 0 0 0 0 0 0 0 0 0 0 0 0
0 0 0 0 0 0 0 0 0 0 0 0 0 -0 -0 -0 0 0 0 0 0 0 0 0 0 0 0 0 0 0 0 0 0 0 0 0 0 0 0 0 0 0 0
0 0 0 0 0 0 0 0 0 0 0 0 0 0 0 0 0 0 0 0 0 0 0 0 0 0 0 0 0 0 0 0 0 0 0 0 0 0 0 0 0 0 0
0 0 0 0 0 0 0 0 0 0 0 0 0 0 0 0 0 0 0 0 0 0 0 0 0 0 0 0 0 0 0 0 0 0 0 0 0 0 0 0 0 0 0
0 0 0 0 0 0 0 0 0 0 0 0 0 0 0 0 0 0 0 0 0 0 0 0 0 0 0 0 0 0 0 0 0 0 0 0 0 0 0 0 0 0 0
0 0 0 0 0 0 0 0 0 0 0 0 0 0 0 0 0 0 0 0 0 0 0 0 0 0 0 0 0 0 0 0 0 0 0 0 0 0 0 0 0 0 0
0 0 0 0 0 0 0 0 0 0 0 0 0 0 0 0 0 0 0 0 0 0 0 0 0 0 0 0 0 0 0 0 0 0 0 0 0 0 0 0 0 0 0
0 0 0 0 0 0 0 0 0 0 0 0 0 0 0 0 0 0 0 0 0 0 0 0 0 0 0 0 0 0 0 0 0 0 0 0 0 0 0 0 0 0 0
0 0 0 0 0 0 0 0 0 0 0 0 0 0 0 0 0 0 0 0 0 0 0 0 0 0 0 0 0 0 0 0 0 0 0 0 0 0 0 0 0 0 0
0 0 0 0 0 0 0 0 0 0 0 0 0 0 0 0 0 0 0 0 0 0 0 0 0 0 0 0 0 0 0 0 0 0 0 0 0 0 0 0 0 0 0
0 0 0 0 0 0 0 0 0 0 0 0 0 0 0 0 0 0 0 0 0 0 0 0 0 0 0 0 0 0 0 0 0 0 0 0 0 0 0 0 0 0 0
0 0 0 0 0 0 0 0 0 0 0 0 0 0 0 0 0 0 0 0 0 0 0 0 0 0 0 0 0 0 0 0 0 0 0 0 0 0 0 0 0 0 0
0 0 0 0 0 0 0 0 0 0 0 0 0 0 0 0 0 0 0 0 0 0 0 0 0 0 0 0 0 0 0 0 0 0 0 0 0 0 0 0 0 0 0
0 0 0 0 0 0 0 0 0 0 0 0 0 0 0 0 0 0 0 0 0 0 0 0 0 0 0 0 0 0 0 0 0 0 0 0 0 0 0 0 0 0 0
0 0 0 0 0 0 0 0 0 0 0 0 0 0 0 0 0 0 0 0 0 0 0 0 0 0 0 0 0 0 0 0 0 0 0 0 0 0 0 0 0 0 0
0 0 0 0 0 0 0 0 0 0 0 0 0 0 0 0 0 0 0 0 0 0 0 0 0 0 0 0 0 0 0 0 0 0 0 0 0 0 0 0 0 0 0
0 0 0 0 0 0 0 0 0 0 0 0 0 0 0 0 0 0 0 0 0 0 0 0 0 0 0 0 0 0 0 0 0 0 0 0 0 0 0 0 0 0 0
Wind_Speed
3 3 2 2 2 2 2 2 2 1 1 1 1 1 1 1 1 1 1 1 1 1 1 2 1 2 2 1 2 2 2 2 2 1 0 1 1 1 2 2 1 2 2
3 3 3 2 2 2 2 2 2 2 1 1 2 2 1 1 1 1 1 1 1 1 1 1 1 2 2 2 2 2 2 2 3 2 0 1 0 0 1 1 2 1 1
3 3 3 3 3 3 2 2 2 2 2 1 1 2 1 1 1 1 1 1 1 1 2 2 2 2 2 1 2 2 2 2 2 2 1 0 0 1 1 1 2 2 2
3 3 3 3 3 3 2 2 2 2 2 2 1 1 1 1 1 1 1 1 1 1 1 2 2 3 3 3 3 2 2 2 2 2 1 0 0 0 1 1 1 1 2
3 3 3 3 2 2 2 2 2 2 2 2 1 1 1 1 1 2 2 2 1 0 0 0 1 2 3 3 3 3 3 3 2 2 2 1 0 1 1 1 1 1 1
3 3 2 2 2 2 2 2 2 2 2 2 1 1 1 1 1 3 3 2 1 1 1 1 1 1 1 2 4 5 6 5 4 3 2 2 2 2 1 1 1 0 1
2 2 2 2 3 3 3 2 2 2 2 2 2 2 2 3 2 2 4 3 2 2 1 1 1 1 1 1 2 3 3 5 6 5 4 4 3 4 3 2 2 2 2
2 2 2 2 2 2 2 2 2 2 2 2 2 2 2 3 3 3 3 2 2 2 2 2 2 2 1 2 2 2 1 2 3 4 4 4 4 4 4 4 3 2 0
2 2 2 3 3 3 3 3 2 2 2 2 2 2 2 3 3 2 2 2 1 2 2 2 2 3 3 4 3 2 1 2 2 3 3 2 2 3 4 3 2 2 1
3 3 3 3 3 3 3 3 2 2 2 2 2 2 2 3 3 3 3 2 2 2 2 2 3 3 4 4 4 3 3 3 1 1 1 1 1 2 4 4 4 3 2
2 2 2 2 3 3 3 2 2 2 2 1 1 2 2 3 3 3 3 2 3 2 2 2 2 4 4 5 5 4 5 4 2 2 1 0 0 1 2 2 3 3 3
1 1 2 2 2 2 3 2 2 2 2 2 1 1 2 2 3 4 4 3 3 3 4 3 3 4 4 4 4 4 4 3 2 1 1 1 1 2 2 2 3 3 3
1 1 2 2 2 2 3 3 2 2 2 2 2 2 2 2 2 3 4 4 3 3 3 4 4 4 3 2 3 3 3 2 2 2 2 3 3 2 1 1 1 1 1
2 2 2 2 1 1 2 2 3 3 3 2 2 2 2 2 2 1 2 2 2 2 2 2 2 2 1 1 1 2 2 2 3 3 3 2 1 1 1 1 1 1 0
2 2 2 2 2 2 2 2 3 3 4 4 4 4 3 3 4 3 2 2 2 2 1 1 0 0 1 1 1 1 1 1 2 2 2 2 2 2 1 1 1 1 2
2 2 2 2 2 2 1 1 1 1 2 3 3 3 3 3 2 2 3 2 2 3 2 1 2 2 2 2 2 2 2 2 3 3 3 3 3 3 2 1 2 2 3
3 2 2 2 2 2 2 2 1 2 2 2 2 2 2 2 1 2 2 1 2 3 1 1 2 2 2 2 2 3 3 3 2 2 3 3 3 2 2 2 2 2 3
2 2 2 2 2 2 2 2 2 2 1 2 2 2 2 1 1 1 1 3 1 1 1 2 3 3 3 3 3 3 2 2 2 2 3 3 3 3 3 3 3 4 3
2 2 2 2 2 2 2 2 2 2 2 1 1 1 1 0 1 1 3 2 2 2 2 3 3 3 3 3 3 3 3 2 2 3 3 3 3 3 3 4 4 5 4
2 3 2 1 1 1 2 2 2 2 2 2 2 2 1 0 0 1 1 1 2 2 3 3 3 3 3 3 3 3 3 3 3 3 3 3 4 4 4 5 4 4 4
2 2 2 1 2 2 2 2 2 2 3 3 3 2 2 2 2 3 3 3 3 3 3 3 3 3 3 3 3 3 4 3 3 3 3 3 4 4 4 4 4 4 3
1 1 2 2 2 2 2 2 2 3 3 3 2 2 3 2 3 3 3 3 3 3 3 3 3 3 4 4 4 4 4 4 4 4 4 4 3 3 3 4 4 3 4
1 2 2 2 2 2 2 2 2 3 3 3 3 2 3 3 3 4 4 4 3 3 3 3 3 3 3 4 4 5 5 5 5 5 5 4 4 4 4 4 4 4 4
1 2 2 2 2 2 2 3 3 3 3 3 3 3 4 4 4 5 4 4 3 3 3 3 4 5 6 4 4 5 5 5 5 4 6 5 5 4 4 4 5 5 5
1 2 2 2 3 3 3 3 3 3 4 4 4 4 4 4 4 4 4 4 4 4 4 4 4 5 6 7 6 5 7 8 7 5 4 5 5 5 5 5 5 5 4
2 2 2 2 3 3 3 3 4 4 4 4 4 4 4 4 4 4 4 4 4 4 4 4 5 5 6 6 7 8 8 9 8 8 5 4 5 5 6 5 6 5 5
Wind_Direction
168 170 164 178 181 165 168 191 187 181 173 170 173 157 137 110 100 110 120 127 141 138 134 158 173 152 141 140 130 131 131 135 149 245 295 356 38 27 15 23 18 8 2
182 173 173 175 158 168 192 204 184 174 170 170 159 150 154 147 135 132 159 150 161 177 188 157 169 145 144 145 142 150 157 156 150 166 286 22 19 358 23 21 7 7 350
175 175 175 177 173 189 194 191 178 173 164 153 146 157 172 176 170 181 178 178 184 198 190 179 179 146 155 155 149 153 160 151 140 148 166 115 3 38 46 16 8 347 336
171 176 183 195 193 197 185 169 170 168 163 172 178 184 197 196 181 171 157 170 188 194 185 186 183 173 179 173 165 168 149 137 133 139 147 155 178 19 84 46 348 347 335
170 188 203 199 181 174 169 169 164 162 169 171 159 180 207 197 196 175 175 175 175 190 193 199 194 179 185 179 171 170 157 150 145 146 155 133 166 157 196 201 207 323 321
184 211 210 180 169 170 178 169 158 159 160 156 172 185 208 243 220 180 161 168 175 179 221 261 228 182 194 189 183 177 171 168 172 165 170 185 214 205 182 175 162 105 299
187 202 196 189 189 185 186 165 174 184 170 182 195 196 227 249 235 207 179 162 169 192 210 211 213 213 188 182 174 167 180 182 178 175 182 203 201 199 173 174 183 188 221
173 188 185 184 195 187 173 180 198 191 188 200 208 215 233 258 236 214 190 174 174 202 215 210 200 216 195 155 151 150 184 210 201 191 195 211 209 192 183 187 189 178 279
195 194 189 180 185 181 181 194 197 188 206 212 206 205 219 258 238 206 175 171 194 231 239 220 198 215 209 161 152 166 202 264 235 193 193 208 211 185 164 139 138 140 245
221 213 199 188 189 194 200 201 197 195 213 208 216 218 221 243 246 210 178 173 199 233 252 243 219 210 205 181 177 179 199 231 222 208 204 232 231 205 183 181 178 174 192
232 216 197 196 203 203 202 197 191 192 190 202 223 249 244 249 251 225 187 180 201 215 228 242 239 216 205 197 193 200 209 198 188 182 188 257 330 205 207 202 197 185 188
185 197 206 208 213 199 188 194 183 175 179 200 218 269 278 268 254 238 223 219 205 205 224 231 228 212 210 206 204 213 194 167 159 158 175 229 245 248 239 220 210 210 212
171 210 220 213 210 191 185 188 179 178 186 202 204 233 268 277 266 260 245 236 223 217 226 223 220 208 203 208 210 205 181 169 167 180 211 229 233 237 233 221 213 210 242
190 231 233 211 219 203 195 191 188 195 201 205 211 231 250 262 261 257 254 244 231 233 233 228 210 189 178 198 206 211 207 197 192 203 214 223 213 189 197 195 205 205 239
204 229 233 210 203 201 210 211 210 214 208 204 211 208 213 238 251 246 218 226 216 205 156 119 110 152 180 215 231 230 220 208 215 214 204 204 203 198 211 194 193 186 209
206 231 232 210 201 194 198 275 306 258 265 254 239 219 232 245 255 232 230 227 192 165 130 163 203 214 216 218 222 231 226 225 226 218 210 208 210 209 211 198 190 200 226
212 228 230 209 198 203 199 197 257 323 334 308 287 258 247 260 233 215 211 186 157 148 145 199 218 221 230 229 223 220 226 229 217 210 214 215 215 213 205 208 209 216 235
218 228 226 216 205 205 207 209 205 217 265 298 302 284 258 241 206 180 128 97 102 162 215 220 226 227 227 230 234 232 232 226 217 219 220 219 213 211 214 219 217 218 230
222 228 225 217 205 202 199 199 203 208 219 242 292 312 306 251 168 154 136 146 190 217 229 235 234 230 227 226 232 235 229 224 227 224 226 223 220 214 221 225 225 229 226
237 252 242 214 198 194 193 199 208 214 222 229 237 240 227 124 177 195 195 200 213 224 229 233 233 232 227 222 223 226 232 235 229 227 232 229 223 219 223 225 227 228 229
243 254 263 247 216 208 203 212 217 217 225 233 242 245 223 211 219 218 219 222 226 233 236 238 237 231 228 223 219 220 224 233 232 231 233 234 228 225 226 226 227 229 232
233 240 235 230 232 227 222 218 221 226 231 236 246 244 234 231 230 230 231 236 235 238 239 238 242 237 227 221 219 219 224 229 232 232 233 233 231 230 228 224 223 225 228
221 231 242 237 227 239 234 227 229 234 238 239 237 234 225 230 234 238 239 239 237 239 239 234 237 244 241 231 224 219 223 229 227 223 223 226 227 226 224 226 223 222 226
229 232 234 235 232 229 232 237 240 245 244 242 240 237 235 237 239 242 242 240 237 237 234 234 238 242 243 242 237 230 231 232 226 223 220 221 225 225 223 227 226 226 228
235 237 238 235 233 235 239 243 245 248 249 247 246 246 244 245 245 247 245 241 237 237 236 237 241 243 243 244 248 246 240 234 232 228 223 220 222 222 222 225 224 224 228
248 249 251 248 242 240 241 244 245 245 247 251 252 249 247 248 248 248 245 241 241 242 242 241 242 246 252 250 250 253 251 243 235 230 224 219 222 224 221 223 223 220 221